www.pogodaiklimat.ru

Погода и климат >> Архив погоды >> Черногория >> Подгорица


АРХИВ ПОГОДЫ в Подгорице

Время (UTC), дата Ветер
(напр.,м/с)
 
Видим.   Явления Облачность Т
(С)
Тd
(С)
f
(%)
Тe
(С)
Тes
(С)
Комфортность P
(гПа)
Po
(гПа)
Тmin
(С)
Tmax
(С)
R
(мм)
R24
(мм)
S
(см)
00 19.08 СЗ 1 10 км ясно +21.4 +14.7 66 +24 +24 комфорт 1016.0 1012.1
03 19.08 С 3 10 км ясно +20.7 +14.3 67 +24 +24 комфорт 1015.8 1011.8
06 19.08 штиль 0 10 км ясно +23.9 +13.4 52 +26 +30 жарко 1016.6 1012.6 +19.0
09 19.08 ЮВ 1 10 км ясно +29.0 +14.4 41 +31 +47 жарко 1016.2 1012.4
12 19.08 Ю 1 10 км ясно +32.0 +15.8 38 +35 +52 опасность
солнечного
удара
1015.4 1011.5
15 19.08 Ю 2 10 км ясно +32.9 +14.6 33 +34 +39 очень
жарко
1014.9 1011.1
18 19.08 штиль 0 10 км ясно +28.4 +18.9 56 +34 +34 очень
душно
1015.3 1011.4 +33.3
21 19.08 штиль 0 10 км ясно +25.0 +19.6 72 +30 +30 душно 1016.3 1012.4
00 20.08 СВ 1 10 км ясно +23.0 +16.7 68 +28 +28 душно 1016.5 1012.5
03 20.08 С 2 10 км ясно +22.1 +15.9 68 +26 +26 душно 1016.7 1012.8
06 20.08 штиль 0 10 км ясно +24.6 +16.0 59 +28 +32 душно 1017.4 1013.5 +20.9
09 20.08 В 1 10 км ясно +31.0 +15.6 39 +33 +50 душно 1017.2 1013.4
12 20.08 Ю 1 10 км ясно +34.0 +16.1 34 +36 +54 опасность
солнечного
удара
1016.1 1012.3
15 20.08 Ю 2 10 км ясно +35.3 +14.1 28 +36 +41 очень
жарко
1015.2 1011.5
18 20.08 Ю 1 10 км ясно +29.3 +18.8 53 +34 +34 очень
душно
1015.3 1011.5 +35.4
21 20.08 СВ 1 10 км ясно +26.0 +20.4 71 +32 +32 очень
душно
1016.3 1012.4
00 21.08 С 1 10 км ясно +24.0 +17.0 65 +28 +28 душно 1016.7 1012.8
03 21.08 С 1 10 км ясно +22.0 +15.7 67 +26 +26 душно 1016.4 1012.5
06 21.08 СВ 2 20 км ясно +26.6 +15.0 49 +29 +32 жарко 1017.3 1013.4 +21.4
09 21.08 ЮВ 1 20 км ясно +31.5 +16.3 40 +34 +50 душно 1016.8 1013.0
12 21.08 Ю 4 20 км 1/1 1200 м
[Cu hum]
+33.4 +16.5 36 +36 +45 очень
душно
1015.2 1011.4
15 21.08 Ю 2 20 км 1/1 1200 м
[Cu hum]
+34.2 +16.7 35 +37 +41 очень
душно
1014.5 1010.7
18 21.08 Ю 1 10 км ясно +29.7 +20.0 56 +36 +36 очень
душно
1014.9 1011.0 +34.5
21 21.08 С 2 10 км ясно +26.0 +19.1 66 +31 +31 очень
душно
1016.5 1012.6
00 22.08 С 4 10 км ясно +28.5 +9.8 31 +29 +29 жарко 1016.9 1013.0
03 22.08 С 3 10 км ясно +26.5 +9.4 34 +27 +27 жарко 1016.9 1013.0
06 22.08 С 3 10 км ясно +28.4 +12.2 37 +30 +32 жарко 1018.1 1014.3 +24.3
09 22.08 В 1 10 км ясно +33.2 +10.2 24 +32 +48 жарко 1018.2 1014.4
12 22.08 Ю 2 10 км 1/1 1200 м
[Cu hum]
+34.6 +9.5 22 +34 +47 очень
жарко
1017.3 1013.5
15 22.08 С 9
{14}
20 км гроза без осадков 8/5 1500 м
[Cb cap Ac trans Ci sp]
+32.7 +13.8 32 +34 +34 очень
жарко
1016.4 1012.6
18 22.08 СВ 1 10 км ясно +30.3 +17.5 46 +34 +34 очень
душно
1016.2 1012.4 +35.3
21 22.08 С 2 10 км ясно +27.9 +12.1 38 +29 +29 жарко 1017.7 1013.9
00 23.08 С 2 10 км 3/0
[Ac trans]
+26.4 +11.8 40 +28 +28 жарко 1017.8 1013.9
03 23.08 С 3 10 км 1/0
[Ac trans]
+25.5 +12.6 45 +27 +27 жарко 1017.7 1013.8
06 23.08 С 4 10 км 6/1 1500 м
[Sc Ac trans]
+27.1 +13.0 42 +29 +30 жарко 1018.6 1014.7 +25.2
09 23.08 В 2 10 км 5/0 2000 м
[Ac trans]
+31.7 +14.0 34 +33 +42 жарко 1018.7 1014.9
12 23.08 Ю 2 10 км 3/3 1200 м
[Cu med, cong]
+34.7 +15.6 32 +37 +47 очень
душно
1017.3 1013.5
15 23.08 ЮЗ 1 10 км 1/1 1200 м
[Cu hum]
+36.3 +12.0 23 +36 +40 очень
жарко
1015.5 1011.7
18 23.08 ЮВ 1 10 км 3/0
[Ci sp]
+29.8 +22.0 63 +38 +38 очень
душно
1015.7 1011.9 +36.5
21 23.08 С 3 10 км 3/0
[Ci sp]
+28.8 +15.5 44 +32 +32 душно 1016.1 1012.2
00 24.08 штиль 0 10 км гроза без осадков 8/3 1000 м
[Cb cap Ac trans]
+27.2 +16.8 53 +31 +31 душно 1016.6 1012.7
03 24.08 З 3 10 км гроза, ливневой дождь 9/5 1000 м
[Cb cap Ac trans]
+23.1 +19.0 78 +29 +29 очень
душно
1017.8 1013.9
06 24.08 В 1 10 км гроза, ливневой дождь 10/6 1000 м
[Cb cap As op]
+22.8 +18.3 76 +28 +29 душно 1019.7 1015.7 +22.7 2
09 24.08 С 4 10 км {гроза, дождь} 9/5 1200 м
[Sc Ac As]
+25.1 +17.2 62 +29 +31 душно 1018.8 1014.9
12 24.08 С 3 10 км 5/3 1200 м
[Sc Ac trans]
+30.8 +16.5 42 +34 +41 очень
душно
1017.1 1013.2 0.2
15 24.08 Ю 1 10 км 3/3 1200 м
[Cu med, cong]
+33.3 +14.9 33 +35 +38 душно 1015.1 1011.3
18 24.08 ЮВ 1 10 км 3/0
[Ac trans]
+26.8 +20.7 69 +33 +33 очень
душно
1015.4 1011.5 +33.8 0.2
21 24.08 СВ 1 10 км ясно +24.5 +19.9 76 +30 +30 очень
душно
1015.6 1011.7
00 25.08 СВ 1 10 км ясно +22.9 +17.9 73 +28 +28 душно 1015.5 1011.5
03 25.08 С 3 10 км ясно +24.3 +15.0 56 +27 +27 жарко 1015.5 1011.5
06 25.08 С 2 10 км 4/3 1200 м
[Cu med, cong Ac trans]
+26.3 +16.0 53 +30 +31 душно 1016.2 1012.4 +22.6
09 25.08 штиль 0 10 км 6/1 1200 м
[Cu med, cong Ac trans]
+30.9 +15.2 39 +33 +44 душно 1016.4 1012.6
12 25.08 ЮЗ 1 10 км 3/3 1200 м
[Cu med, cong]
+34.0 +15.1 32 +36 +47 душно 1014.4 1010.6
15 25.08 С 6 10 км 3/1 1200 м
[Cu med, cong Ac lent]
+33.9 +14.3 31 +35 +36 очень
жарко
1013.6 1009.8
18 25.08 С 4 10 км ясно +29.7 +13.2 36 +31 +31 жарко 1014.0 1010.1 +35.2
21 25.08 С 4 10 км 3/3 1200 м
[Cu med, cong]
+28.5 +12.8 38 +30 +30 жарко 1015.0 1011.2

 

Местоположение метеостанции Подгорица (Черногория): широта 42.37 долгота 19.25 высота над уровнем моря 33 м.

В архиве по умолчанию представлена погода в Подгорице за последнюю неделю. Архивные данные за месяц целиком и за предыдущие месяцы, начиная с января 2011 года, Вы можете получить, выбрав интересующий диапазон дат из раскрывающегося списка и нажав кнопку "Ввод!".


*Определитесь, кто Вы:
робот инопланетянин человек

Внимание! Время в таблицах - всемирное. Для получения местного времени необходимо прибавить поправку, которая равна 1 ч.

Смотрите также архив погоды в соседних городах и на ближайших метеорологических станциях:

Погода в Подгорица-Граде (Черногория) (7 км)
Погода в Баре (Черногория) (32 км)
Погода в Шкодре (Албания) (38 км)
Погода в Тивате (Черногория) (43 км)
Погода в Никшиче (Черногория) (51 км)
Погода в Дубровник аэропорту (Хорватия) (83 км)
Погода в Дубровнике (Хорватия) (101 км)
Погода в Плевле (Черногория) (109 км)
Погода в Тиране Лапрака (Албания) (117 км)
Погода в Женике (Сербия) (118 км)

Пояснения к столбцам:

Ветер - указаны скорость ветра в м/с - средняя за 10 мин, порывы в срок и между сроками (в фигурных скобках) и направление, откуда дует ветер: С - северный, СВ - северо-восточный, В - восточный, ЮВ - юго-восточный, Ю - южный, ЮЗ - юго-западный, З - западный, СЗ - северо-западный.
Видимость - горизонтальная дальность видимости в метрах или километрах. При видимости от 1 до 10 км при отсутствии осадков обычно наблюдается дымка, при ухудшении видимости до 1 км и менее - туман. В сухую погоду видимость может ухудшаться дымом, пылью или мглою.
Явления - указаны атмосферные явления, наблюдавшиеся в срок или в последний час перед сроком; фигурными скобками обозначены явления, наблюдавшиеся между сроками (за 1-3 часа до срока); квадратными скобками обозначены град или гололедные отложения с указанием их диаметра в мм.
Облачность - указаны через наклонную черту общая и нижняя облачность в баллах и высота нижней границы облаков в метрах; квадратными скобками обозначены формы облаков: Ci - перистые, Cs - перисто-слоистые, Cc - перисто-кучевые, Ac - высококучевые, As - высокослоистые, Sc - слоисто-кучевые, Ns - слоисто-дождевые, Cu - кучевые, Cb - кучево-дождевые. Подробнее классификацию облаков см. в Атласе облаков (PDF).
T - Температура воздуха - температура, измеренная на высоте 2 м над землей.
Td - Температура точки росы - температура, при понижении до которой содержащийся в воздухе водяной пар достигнет насыщения.
f - Относительная влажность воздуха - влажноcть воздуха, измеренная на высоте 2 м над землей.
Te - Эффективная температура - температура, которую ощущает одетый по сезону человек в тени. Характеристика душности погоды. При расчете учитывается влияние влажности воздуха и скорости ветра на теплоощущения человека.
Tes - Эффективная температура на солнце - температура, которую ощущает человек, с поправкой на солнечный нагрев. Характеристика знойности погоды. Зависит от высоты солнца над горизонтом, облачности и скорости ветра. Ночью, в пасмурную погоду, а также при ветре 12 м/с и более поправка равна нулю.
P - Атмосферное давление - приведенное к уровню моря атмосферное давление.
Po - Атмосферное давление - измеренное на уровне метеостанции атмосферное давление.
Tmin - Минимальная температура - минимум температуры воздуха на высоте 2 м над землей.
Tmax - Максимальная температура - максимум температуры воздуха на высоте 2 м над землей.
R - Количество осадков - Количество выпавших осадков за период времени, мм. При наведении курсора мыши на число - период времени, за который выпало указанное количество осадков.
R24 - Количество осадков - Количество выпавших осадков за 24 часа, мм.
S - Снежный покров - Высота снежного покрова, см. При наведении курсора мыши на число - состояние снежного покрова и степень покрытия местности в баллах.